Orbital Elements at Epoch 2459000.5 (2020-May-31.0) TDB
Reference: JPL 9 (heliocentric ecliptic J2000)
Element | Value | Uncertainty (1-sigma) | Units |
e | .25447474184125 | 7.7636e-08 | |
a | 3.128796336504885 | 3.132e-08 | au |
q | 2.332596696498956 | 2.5383e-07 | au |
i | 9.169094174881257 | 7.7187e-06 | deg |
node | 184.1734356340312 | 4.005e-05 | deg |
peri | 289.3157661689629 | 4.6524e-05 | deg |
M | 285.8164621129421 | 1.6796e-05 | deg |
tp | 2459417.052177609704 (2021-Jul-21.55217761) | 9.6479e-05 | TDB |
period | 2021.456352860941 5.53 | 3.0353e-05 8.31e-08 | d yr |
n | .1780894252257768 | 2.6741e-09 | deg/d |
Q | 3.924995976510814 | 3.9291e-08 | au |
|
| | Orbit Determination Parameters
Additional Information
|